Погода в Телсиаи

Поиск расширенной информации на нашем сайте:

Полезная информация:

Новости сайта



02.01.2020
Опубликован Долгосрочный прогноз погоды по городам России и ближнего зарубежья на январь 2020 года.
Карты: Прогноз на январь и февраль 2020 года, Сравнение прогнозируемой аномалии приземной температуры воздуха на январь 2020 года по разным моделям.




Погода в Телсиаи - сегодня

Время (UTC), дата Ветер
(°,м/с) 
Видим.   Явления Облачность Т
(°С)
Тd
(°С)
f(%) Тe
(°С)
Pmin
(гПа)
dP
(гПа)
Po
(мм)
O2
(г/м3)
Тmin Tmax R s Состояние
почвы
03 24.02.21 230 (ЮЗ) 3-5{07}  0200 м  слаб. дождь  10/0 
+1.3 +1.3 100 1028.5  0.1  757  303           
06 24.02.21 240 (ЮЗ) 3-6{07}  0500 м  туман  10/0 
+2.7 +2.7 100 +1  1028.4  0.1  757  302  +1.2         
09 24.02.21 230 (ЮЗ) 4-6{07}  0100 м  туман  10/0 
+3.8 +3.8 100 +2  1027.8  -0.6  757  300           
12 24.02.21 230 (ЮЗ) 5-8{09}  2100 м  дымка  5/5 100 м 
+6.6 +6.4 99 +5  1027.5  -0.1  756  297           
15 24.02.21 230 (ЮЗ) 4-7{09}  6000 м  дымка  1/0 
+6.8 +5.8 93 +5  1025.6  -1.8  755  296           
21 24.02.21 250 (З) 5-9{13}  8000 м  дымка  ясно <0100 м 
+6.3 +4.6 89 +4  1023.7  -1.1  754  296           
00 25.02.21 250 (З) 3-7{09}  10 км    10/10 600 м 
+6.1 +4.6 90 +5  1023.9  0.2  754  296           
03 25.02.21 250 (З) 4-8{09}  10 км    9/0 2000 м 
+6.1 +4.8 91 +5  1022.9  -0.9  753  296           
12 25.02.21 230 (ЮЗ) 6-9{12}  17000 м    6/0 2000 м 
+11 +6 71 +10  1022.3  -0.8  753  291           
15 25.02.21 230 (ЮЗ) 4-6{11}  12000 м    ясно <0100 м 
+11.1 +6.2 72 +10  1020.3  -1.9  751  290           
18 25.02.21 220 (ЮЗ) 5-8{09}  10 км    ясно <0100 м 
+8.4 +5.5 82 +7  1019.1  -1.4  750  292    +11.6       
21 25.02.21 240 (ЮЗ) 5-10{11}  5000 м  дымка  3/0 
+6.9 +5.6 91 +5  1017.5  -1.6  749  294           
00 26.02.21 250 (З) 4-7{11}  5000 м  дымка  9/9 200 м 
+6.8 +5.5 91 +5  1016.5  -1  748  293           
03 26.02.21 270 (З) 5-9{10}  14000 м    ясно 
+4.7 +2.5 86 +3  1016.3  -0.4  748  296           
06 26.02.21 280 (З) 5-8{13}  19000 м    9/9 300 м 
+3.8 +1.9 87 +1  1016.6  0.3  748  297  +3.8         
12 26.02.21 260 (З) 5-10{13}  10 км    10/10 200 м 
+3.9 +2.4 90 +2  1016.1  -0.1  748  297           
15 26.02.21 260 (З) 5-10{13}  16000 м    10/10 200 м 
+4.1 +2.2 87 +2  1015.2  -0.9  747  296           
18 26.02.21 270 (З) 4-7{10}  15000 м    3/0 
+3.4 +1.8 89 +1  1016.1  0.8  748  297    +4.2       
21 26.02.21 260 (З) 2-5{08}  18000 м    3/0 
+2.5 +1.3 92 +2  1017  0.8  749  299           
00 27.02.21 310 (СЗ) 3-6{08}  20000 м    9/0 2000 м 
+3.2 +1.4 88 +2  1018.2  1.3  749  298           
03 27.02.21 310 (СЗ) 5-8{10}  20000 м    ясно 
+1.8 +0.1 88 -1  1020.1  1.8  751  301           
06 27.02.21 310 (СЗ) 5-8{09}  20000 м    ясно 
+1 -0.4 90 -2  1022.3  2.1  752  302  +0.9         
09 27.02.21 320 (СЗ) 6-10{12}  20000 м    ясно 
+3.8 +0 76 +1  1024.5  2.3  754  300           
12 27.02.21 320 (СЗ) 6-9{12}  20000 м    ясно 
+6.4 -2.1 55 +4  1025.8  1.4  755  298           
15 27.02.21 310 (СЗ) 6-9{13}  20000 м    ясно 
+5.1 -2.8 57 +3  1027.6  1.7  756  300           
Время (UTC), дата Ветер
(°,м/с) 
Видим.   Явления Облачность Т
(°С)
Тd
(°С)
f(%) Тe
(°С)
Pmin
(гПа)
dP
(гПа)
Po
(мм)
O2
(г/м3)
Тmin Tmax R s Состояние
почвы

Для получения пояснительной информации подведите курсор к названию столбца.

ПОГОДА в Телсиаи - архив

Всё, что Вы хотите узнать о погоде в Телсиаи - удобно и подробно!

Выберите нужную дату (начиная с 1 января 2019* года) и нажмите кнопку "Найти".
Будут отображены архивные сводки погоды по пункту Телсиаи, начиная с указанной даты.


Отображать данные в формате CSV (для использования в таблицах Excel)


Внимание! Наш архив погоды предназначен исключительно для личного некоммерческого использования в познавательных целях. Если Вам необходимы официальные справки о состоянии погоды (для производственных, юридических, коммерческих и т.п. целей), обращайтесь в органы Росгидромета.

*Примечание: данная дата относится к архиву по метеостанциям СССР (Россия, СНГ, Балтия).
Архив по метеостанциям Зарубежной Европы и Азии (кроме Китая) хранится 10 дней, по другим регионам земного шара (Китай, Африка, Америка, Австралия, Океания) - 1 день.

Телсиаи - район местоположения метеостанции


Название, широта, долгота, высота метеостанции:
Телсиаи 56°ш. 22.2°д. 152 м над ур. моря [Литва]

Дополнительная информация

В oтличие oт бoльшинства пoгoдных сайтoв мы публикуем пoдрoбную метеoинфoрмацию в детальнoм прoфессиoнальнoм фoрмате.

Характеристики температуры и влажнoсти вoздуха измеряются на высoте 2 м в тени вдали oт зданий и деревьев.
Скoрoсть ветра измеряется на высoте 10 м (на урoвне рoста челoвека скoрoсть ветра ниже в 1.5-2 раза). Если метеoстанция нахoдится в гoрoде или в лесу, тo скoрoсть ветра занижена на 2-4 м/с пo сравнению с oткрытым местoм. Скoрoсть ветра над акватoриями крупных рек и oзёр, а также на вершинах хoлмoв на 2-5 м/с выше, чем в oбычных услoвиях.
Атмoсфернoе давление в разных тoчках местнoсти мoжет значительнo oтличаться oт давления на метеoстанции, в зависимoсти oт услoвий рельефа (при пoдъёме на 10 м давление пoнижается примернo на 1 мм рт.ст.).